TimePST,TemperatureF,Dew PointF,Humidity,Sea Level PressureIn,VisibilityMPH,Wind Direction,Wind SpeedMPH,Gust SpeedMPH,PrecipitationIn,Events,Conditions,WindDirDegrees,DateUTC
12:53 AM,41.0,30.9,67,30.12,10.0,Calm,Calm,-,N/A,,Partly Cloudy,0,2013-02-04 08:53:00
3:53 AM,42.1,32.0,67,30.13,10.0,NW,9.2,-,N/A,,Overcast,320,2013-02-04 11:53:00
4:53 AM,42.1,33.1,70,30.13,10.0,NW,16.1,-,N/A,,Overcast,320,2013-02-04 12:53:00
5:53 AM,39.9,32.0,73,30.12,10.0,NNW,11.5,-,N/A,,Scattered Clouds,340,2013-02-04 13:53:00
6:53 AM,36.0,28.9,76,30.12,10.0,NW,6.9,-,N/A,,Clear,310,2013-02-04 14:53:00
7:53 AM,37.9,30.9,76,30.13,10.0,WNW,9.2,-,N/A,,Partly Cloudy,290,2013-02-04 15:53:00
8:53 AM,43.0,33.1,68,30.13,10.0,WNW,9.2,-,N/A,,Clear,290,2013-02-04 16:53:00
9:53 AM,45.0,33.1,63,30.13,10.0,West,9.2,-,N/A,,Clear,280,2013-02-04 17:53:00
10:53 AM,46.9,33.1,59,30.13,10.0,West,11.5,-,N/A,,Clear,280,2013-02-04 18:53:00
11:53 AM,48.9,34.0,56,30.11,10.0,WNW,10.4,-,N/A,,Clear,290,2013-02-04 19:53:00
12:53 PM,50.0,34.0,54,30.08,10.0,West,8.1,-,N/A,,Clear,280,2013-02-04 20:53:00
1:53 PM,51.1,33.1,50,30.05,10.0,West,4.6,-,N/A,,Clear,270,2013-02-04 21:53:00
2:53 PM,52.0,34.0,50,30.04,10.0,WSW,3.5,-,N/A,,Clear,240,2013-02-04 22:53:00
4:53 PM,46.0,33.1,61,30.01,10.0,WSW,3.5,-,N/A,,Clear,240,2013-02-05 00:53:00
5:53 PM,39.9,30.9,70,30.02,10.0,East,3.5,-,N/A,,Clear,80,2013-02-05 01:53:00
6:53 PM,42.1,33.1,70,30.02,10.0,NE,8.1,-,N/A,,Overcast,40,2013-02-05 02:53:00
7:53 PM,43.0,33.1,68,30.01,10.0,NE,5.8,-,N/A,,Overcast,50,2013-02-05 03:53:00
8:53 PM,39.9,33.1,77,29.97,10.0,WSW,4.6,-,N/A,,Overcast,240,2013-02-05 04:53:00
9:53 PM,41.0,35.1,79,29.96,10.0,North,8.1,-,0.00,Rain,Light Rain,350,2013-02-05 05:53:00
10:53 PM,39.9,35.1,83,29.94,10.0,West,3.5,-,0.00,,Overcast,270,2013-02-05 06:53:00
11:53 PM,39.0,34.0,82,29.93,10.0,East,5.8,-,N/A,,Overcast,90,2013-02-05 07:53:00